Regional Weather Roundup
Issued by NWS

Home | Current Version | Previous Version | Graphics & Text | Print | Product List | Glossary On
Versions: 1 2 3 4 5 6 7 8 9 10 11 12 13 14 15 16 17 18 19 20 21 22 23 24 25 26 27 28 29 30 31 32 33 34 35 36 37 38 39 40 41 42 43 44 45 46 47 48 49 50
000
ASUS43 KDTX 031310
RWRMI
MICHIGAN HOURLY REGIONAL WEATHER ROUNDUP
NATIONAL WEATHER SERVICE DETROIT/PONTIAC MI
800 AM EST SAT DEC 03 2016

NOTE: "FAIR" INDICATES FEW OR NO CLOUDS BELOW 12,000 FEET WITH NO
SIGNIFICANT WEATHER AND/OR OBSTRUCTION TO VISIBILITY.

MIZ047>049-052>055-059>063-066>070-074>076-081>083-031400-
SOUTHEAST LOWER MICHIGAN

CITY           SKY/WX    TMP DP  RH WIND       PRES   REMARKS
ADRIAN         CLOUDY    34  30  85 W6        30.32R WCI  29
ALMA           CLOUDY    35  31  83 W10G16    30.28S WCI  28
ANN ARBOR      CLOUDY    32  30  92 SW3       30.29S
BAD AXE        CLOUDY    36  33  89 W8        30.24R WCI  30
CARO           CLOUDY    34  32  91 SW5       30.25S WCI  30
DETROIT CITY   CLOUDY    35  29  78 W7        30.29R WCI  29
DETROIT        CLOUDY    36  29  75 W7        30.30F WCI  30
FLINT          CLOUDY    34  30  85 W6        30.28R WCI  29
GROSSE ILE     CLOUDY    35  30  80 W3        30.29S
HILLSDALE      CLOUDY    32  30  93 W5        30.29R WCI  27
HOWELL         CLOUDY    34  30  85 SW3       30.28R

CITY           SKY/WX    TMP DP  RH WIND       PRES   REMARKS
JACKSON        CLOUDY    34  28  79 W7        30.30R WCI  28
LAMBERTVILLE   CLOUDY    37  31  78 CALM      30.31S
LANSING        CLOUDY    35  29  78 W8        30.30R WCI  29
LAPEER         NOT AVBL
MASON          CLOUDY    34  31  88 W5        30.29S WCI  30
MONROE         CLOUDY    36  32  87 W6        30.30S WCI  31
MT. CLEMENS    CLOUDY    36  30  78 W8        30.25S WCI  30
PONTIAC        CLOUDY    34  28  79 W7        30.26S WCI  28
PORT HOPE        N/A     40  33  76 W8        30.21R WCI  34
PORT HURON     CLOUDY    36  30  80 W3        30.27R
TRI CITIES     CLOUDY    35  32  88 W10       30.27R WCI  27
MIDLAND        CLOUDY    35  31  86 W5        30.26R WCI  31
TROY           CLOUDY    36  28  75 W7        30.30R WCI  30
SAGINAW HB     CLOUDY    36  30  80 W8        30.26S WCI  29
$$
MIZ043>046-050>051-056>058-064>065-071>073-077>080-031400-
SOUTHWEST LOWER MICHIGAN

CITY           SKY/WX    TMP DP  RH WIND       PRES   REMARKS
BATTLE CREEK   CLOUDY    35  29  78 NW8       30.31R WCI  29
BENTON HARBOR  CLOUDY    36  26  67 W7        30.33R WCI  30
BIG RAPIDS     CLOUDY    35  31  85 W6        30.26S WCI  30
COLDWATER      CLOUDY    34  29  82 SW5       30.31R WCI  30
FREMONT        LGT SNOW  33  30  92 CALM      30.29S
HOLLAND        CLOUDY    37  30  75 W6        30.31R WCI  32
GRAND RAPIDS   CLOUDY    35  28  75 W6        30.30S WCI  30
IONIA          CLOUDY    34  30  85 NW5       30.29S WCI  30
KALAMAZOO      CLOUDY    36  27  69 W6        30.31R WCI  31
LUDINGTON      CLOUDY    36  32  85 W6        30.28S WCI  31
MARSHALL       CLOUDY    35  29  80 W5        30.30R WCI  31
MOUNT PLEASANT CLOUDY    35  31  86 W7        30.26S WCI  29
MUSKEGON       CLOUDY    36  29  75 VRB5      30.31S WCI  32
SOUTH HAVEN    CLOUDY    38  30  72 W3        30.32R
$$
MIZ016>042-031400-
NORTHERN LOWER MICHIGAN

CITY           SKY/WX    TMP DP  RH WIND       PRES   REMARKS
ALPENA         CLOUDY    36  32  85 W6        30.22R WCI  31
BEAVER ISLAND  CLOUDY    36  32  85 CALM      30.24R
BELLAIRE       MIX PCPN  35  34  96 CALM      30.25R
CADILLAC       FLURRIES  33  32  96 W5        30.22S WCI  28
CHARLEVOIX     CLOUDY    38  32  78 N6        30.26R WCI  34
FRANKFORT      CLOUDY    36  36  99 CALM      30.25S
GAYLORD        LGT SNOW  34  31  88 CALM      30.21R FOG
GRAYLING       CLOUDY    34  33  96 CALM      30.23S
HARBOR SPRINGS CLOUDY    35  32  87 CALM      30.23R
HOUGHTON LAKE  CLOUDY    35  33  92 W7        30.23R WCI  29
MANISTEE       LGT RAIN  37  34  89 W6        30.26S WCI  32
OSCODA         CLOUDY    37  33  84 W3        30.23R
PELLSTON       CLOUDY    35  31  85 W3        30.24R
ROGERS CITY    CLOUDY    36  32  84 W5        30.23R WCI  32
TRAVERSE CITY  CLOUDY    37  34  89 CALM      30.24R
$$
MIZ007>008-015-031400-
EASTERN UPPER MICHIGAN

CITY           SKY/WX    TMP DP  RH WIND       PRES   REMARKS
KINROSS        CLOUDY   N/A N/A N/A W7        30.20S
MACKINAC ISLAN CLOUDY    34  32  91 NW7       30.21R WCI  28
NEWBERRY       CLOUDY    32  32 100 W5        30.21R WCI  27
S. S. MARIE    CLOUDY    33  31  92 CALM      30.19R
MUNISING         N/A     36  34  92 NW6       30.23R WCI  31
$$
MIZ004>006-011>014-085-031400-
CENTRAL UPPER MICHIGAN

CITY           SKY/WX    TMP DP  RH WIND       PRES   REMARKS
MANISTIQUE     CLOUDY    34  32  93 W3        30.24R
SAWYER-GWINN   CLOUDY    30  27  86 CALM      30.23R
$$
MIZ001>003-009>011-084-031400-
WESTERN UPPER MICHIGAN

CITY           SKY/WX    TMP DP  RH WIND       PRES   REMARKS
IRON MOUNTAIN  CLOUDY    32  26  78 CALM      30.24R
HOUGHTON       CLOUDY    31  28  89 CALM      30.22R
COPPER HARBOR    N/A     35  28  75 NE8       30.23S WCI  29
IRONWOOD       CLOUDY    28  27  96 SW5       30.26R WCI  23
$$

ABBREVIATIONS USED IN REMARKS
   TC - TEMPERATURE IN CELSIUS
  WCI - WIND CHILL INDEX
   HX - HEAT INDEX
  VSB - VISIBILITY




USA.gov is the U.S. government's official web portal to all federal, state and local government web resources and services.